[[{"header":{"parameterUnit":"m.s-1","parameterCategory":1,"la1":30.2991,"la2":30.254,"lo1":-89.0895,"lo2":-89.0444,"dy":0.0017,"dx":0.0017,"nx":28,"ny":28,"refTime":"2025-03-31T21:00:00:Z","depth":0,"parameterNumber":2,"parameterNumberName":"U-component_of_WINDS"},"data":[0,0,0,0,0,0,0,0,0,0,0,0,0,0,0,0,0,0,0,0,0,0,0,0,0,0,0,0,0,0,0,0,0,0,0,0,0,0,0,0,0,0,0,0,0,0,0,0,0,0,0,0,0,0,0,0,0,0,0.9939,0.994,0,1.0057,1.0059,1.006,1.0054,1.0052,1.005,1.0049,1.0174,1.0179,1.0183,0,0,0,0,0,0,0,0,0,0,0,0,0,0.971,0.9714,0.9938,0.994,0.9941,1.0057,1.0059,1.006,1.0054,1.0052,1.005,1.0048,1.0172,1.0178,1.0184,0,0,0,0,0,0,0,0,0,0,0,0,0,0.9817,0.9715,0.9938,0.9952,0.9955,1.0057,1.0059,1.0061,1.0054,1.0052,1.0049,1.0047,1.017,1.0177,1.0185,1.0282,0,0,1.0207,1.021,0,0,0,0,0,0,0,0,0.9811,0.9825,0.9949,0.9951,0.9954,1.0038,1.0024,1.0135,1.0055,1.0017,1.0049,1.0046,1.0131,1.0141,1.0169,1.0288,1.0293,1.0208,1.0212,1.0216,1.0218,0,0,0,0,0,0,0,0.9803,0.982,0.9985,0.995,0.9954,0.9954,0.9966,1.0045,1.0087,1.002,1.002,1.0034,1.0132,1.0162,1.0172,1.0295,1.0208,1.0214,1.0219,1.0222,1.0499,1.0502,0,0,0,0,0,0,0.9792,0.9814,0.9982,0.9989,0.9875,0.996,0.9974,1.0014,1.0086,1.0094,1.0036,1.0033,1.0151,1.0164,1.0177,1.0295,1.0215,1.0222,1.0227,1.0496,1.05,1.0503,0,0,0,0,0,0,0.9787,0.9807,0.9977,0.9902,0.9923,0.9966,1.0012,1.0017,1.0048,1.0098,1.0106,1.0059,1.0149,1.0166,1.0255,1.0299,1.0226,1.0232,1.0493,1.0497,1.0501,1.0532,0,0,0,0,0,0,0.9781,0.9806,0.9842,0.9902,0.9927,1.0053,1.0014,1.0022,1.006,1.0057,1.0121,1.013,1.0149,1.0244,1.0263,1.0308,1.0238,1.0489,1.0495,1.05,1.0528,1.0537,1.0545,0,0,0,0,0,0.9773,0.9847,0.9844,0.9864,0.9973,1.0055,1.0069,1.0089,1.0063,1.0101,1.0133,1.0128,1.0292,1.0254,1.0274,1.0322,1.0486,1.0493,1.05,1.0524,1.0535,1.0545,0,0,0,0,0,0,0.9791,0.9855,0.9852,0.9948,0.9996,1.0054,1.0102,1.0101,1.0158,1.0153,1.0176,1.0191,1.028,1.031,1.0267,1.042,1.0386,1.0397,1.0397,1.0409,1.0417,1.0408,1.0244,0,0,0,0,0,0.9806,0.9866,0.9919,0.9998,1.0022,1.0058,1.0094,1.0105,1.0157,1.0177,1.0216,1.0267,1.033,1.0371,1.0432,1.0532,1.0546,1.0576,1.0585,1.0592,1.0601,1.0656,1.067,1.0525,1.0525,1.0525,0,0,0.9838,0.988,0.9917,1.0003,1.0042,1.0104,1.0075,1.0143,1.019,1.0188,1.0274,1.0305,1.0363,1.0458,1.0502,1.0486,1.0644,1.06,1.0605,1.0611,1.0665,1.0678,1.0691,1.0529,1.0528,1.0528,0,0,0.9928,0.9966,1.0036,1.0075,1.0134,1.0157,1.0174,1.0232,1.0252,1.0339,1.0339,1.0396,1.0504,1.0546,1.0581,1.0688,1.0685,1.0707,1.0754,1.0808,1.0819,1.0829,1.0867,1.0881,1.0716,1.0717,1.0717,0,0.996,1.0054,1.0072,1.014,1.0178,1.0179,1.025,1.0288,1.0364,1.0391,1.0372,1.0508,1.0547,1.0652,1.0678,1.0707,1.0727,1.07,1.0816,1.0826,1.0836,1.0873,1.0887,1.0719,1.0719,1.0718,1.0718,0,1.0091,1.0156,1.0205,1.0277,1.0322,1.0391,1.0421,1.0464,1.0471,1.0497,1.0586,1.0633,1.0704,1.073,1.0738,1.0836,1.0825,1.0811,1.0776,1.0852,1.0887,1.0901,1.0722,1.0721,1.0721,1.072,0,0,1.0194,1.0276,1.0294,1.0327,1.0392,1.0443,1.0514,1.0582,1.0618,1.0671,1.073,1.0822,1.081,1.085,1.0863,1.0911,1.0992,1.0891,1.0893,1.0908,1.1104,1.1113,1.1129,1.0991,1.0994,1.0996,1.1099,0,1.0291,1.0413,1.0433,1.0541,1.0602,1.0604,1.0665,1.0712,1.0738,1.0795,1.0824,1.0889,1.0867,1.0892,1.0939,1.0972,1.1032,1.0965,1.1047,1.105,1.1031,1.1147,1.1157,1.1252,1.1112,1.1115,1.1116,0,1.0419,1.0474,1.0588,1.0646,1.0672,1.0726,1.079,1.0844,1.0898,1.0914,1.0959,1.0967,1.1041,1.1004,1.1107,1.1061,1.1096,1.1118,1.1122,1.113,1.1087,1.1158,1.1283,1.1296,1.1138,1.1136,1.1135,0,1.0482,1.0586,1.0667,1.0696,1.0765,1.0803,1.0834,1.0885,1.0925,1.0982,1.1008,1.1073,1.1109,1.1159,1.1185,1.1156,1.1286,1.1251,1.1302,1.1301,1.1329,1.1326,1.146,1.1352,1.1352,1.1352,1.1351,0,1.0587,1.0657,1.0697,1.0747,1.0826,1.0848,1.0926,1.0956,1.1002,1.1059,1.1065,1.1119,1.1149,1.1208,1.1228,1.131,1.1327,1.1342,1.1347,1.1341,1.1339,1.1364,1.1358,1.1356,1.1355,1.1354,1.1353,0,1.0671,1.0701,1.079,1.0848,1.0864,1.092,1.097,1.1019,1.1046,1.1118,1.1136,1.1178,1.1247,1.1277,1.1363,1.1377,1.1471,1.1471,1.1452,1.1453,1.1502,1.1497,1.1656,1.1678,1.1556,1.1557,1.1558,0,1.0736,1.0789,1.0853,1.0891,1.0923,1.0984,1.1025,1.1049,1.1092,1.1158,1.1199,1.1269,1.1325,1.1436,1.1474,1.154,1.1542,1.1593,1.1552,1.1544,1.1542,1.1538,1.1544,1.16,1.1601,1.1602,1.1603,0,1.0847,1.0859,1.0917,1.098,1.1028,1.1079,1.1129,1.116,1.1193,1.124,1.131,1.1354,1.1441,1.151,1.1578,1.1611,1.1613,1.1616,1.1631,1.1626,1.1612,1.162,1.1472,1.1612,1.1611,1.161,1.161,1.161,1.0923,1.0971,1.1023,1.1087,1.1128,1.1174,1.1224,1.1256,1.1314,1.1386,1.1398,1.1473,1.1527,1.1619,1.1654,1.1714,1.1702,1.1724,1.1729,1.1734,1.1737,1.1603,1.1727,1.1727,1.1727,1.1726,1.1726,0,1.1034,1.1068,1.1127,1.1196,1.1247,1.1244,1.1299,1.1342,1.1408,1.1458,1.1513,1.1594,1.1661,1.1705,1.1773,1.1812,1.1815,1.1829,1.1826,1.1834,1.1744,1.1724,1.1826,1.1826,1.1826,1.1826,1.1826,1.1826,1.1098,1.1179,1.1197,1.1298,1.1332,1.1404,1.1436,1.148,1.152,1.161,1.1665,1.1693,1.1741,1.1812,1.1874,1.1885,1.191,1.1925,1.1936,1.1851,1.184,1.183,1.1811,1.193,1.193,1.202,1.2021,1.2022]},{"header":{"parameterUnit":"m.s-1","parameterCategory":1,"la1":30.2991,"la2":30.254,"lo1":-89.0895,"lo2":-89.0444,"dy":0.0017,"dx":0.0017,"nx":28,"ny":28,"refTime":"2025-03-31T21:00:00:Z","depth":0,"parameterNumber":3,"parameterNumberName":"V-component_of_WINDS"},"data":[0,0,0,0,0,0,0,0,0,0,0,0,0,0,0,0,0,0,0,0,0,0,0,0,0,0,0,0,0,0,0,0,0,0,0,0,0,0,0,0,0,0,0,0,0,0,0,0,0,0,0,0,0,0,0,0,0,0,-0.4219,-0.4219,0,-0.4206,-0.4206,-0.4206,-0.4262,-0.4263,-0.4265,-0.4267,-0.4252,-0.425,-0.4248,0,0,0,0,0,0,0,0,0,0,0,0,0,-0.4292,-0.429,-0.4219,-0.4219,-0.4219,-0.4206,-0.4206,-0.4206,-0.4261,-0.4263,-0.4265,-0.4267,-0.4253,-0.425,-0.4248,0,0,0,0,0,0,0,0,0,0,0,0,0,-0.4267,-0.4289,-0.4219,-0.4245,-0.4247,-0.4206,-0.4206,-0.4206,-0.4261,-0.4263,-0.4266,-0.4268,-0.4253,-0.4251,-0.4248,-0.4181,0,0,-0.4239,-0.4238,0,0,0,0,0,0,0,0,-0.4269,-0.4265,-0.4241,-0.4243,-0.4245,-0.4238,-0.4226,-0.4197,-0.426,-0.4256,-0.4267,-0.4269,-0.4245,-0.4243,-0.4235,-0.418,-0.4179,-0.4239,-0.4237,-0.4236,-0.4235,0,0,0,0,0,0,0,-0.427,-0.4266,-0.4214,-0.4241,-0.4243,-0.4257,-0.4256,-0.4221,-0.4237,-0.4256,-0.426,-0.4258,-0.4247,-0.4238,-0.4235,-0.4179,-0.4239,-0.4236,-0.4234,-0.4233,-0.4068,-0.4066,0,0,0,0,0,0,-0.4269,-0.4267,-0.4214,-0.4213,-0.4263,-0.4254,-0.4253,-0.4238,-0.4237,-0.424,-0.4256,-0.4261,-0.4242,-0.4239,-0.4235,-0.4156,-0.4236,-0.4233,-0.4231,-0.4071,-0.4068,-0.4065,0,0,0,0,0,0,-0.427,-0.4263,-0.4215,-0.4241,-0.4236,-0.425,-0.4232,-0.4236,-0.4227,-0.4237,-0.424,-0.4244,-0.4243,-0.4239,-0.4194,-0.4156,-0.4232,-0.4229,-0.4074,-0.407,-0.4066,-0.3997,0,0,0,0,0,0,-0.4272,-0.4264,-0.4238,-0.424,-0.4234,-0.4173,-0.423,-0.4234,-0.4222,-0.4229,-0.4227,-0.4229,-0.4245,-0.4198,-0.4191,-0.4153,-0.4227,-0.4077,-0.4072,-0.4068,-0.4003,-0.3991,-0.3981,0,0,0,0,0,-0.4274,-0.4219,-0.4236,-0.423,-0.4203,-0.4171,-0.4168,-0.4188,-0.4219,-0.4194,-0.42,-0.4229,-0.4162,-0.4193,-0.4186,-0.4146,-0.408,-0.4074,-0.4068,-0.4007,-0.3993,-0.3981,0,0,0,0,0,0,-0.4211,-0.4219,-0.4239,-0.4183,-0.4176,-0.4181,-0.4149,-0.4173,-0.4156,-0.4163,-0.4189,-0.4188,-0.4138,-0.4138,-0.4172,-0.4082,-0.4126,-0.4119,-0.4083,-0.4069,-0.4059,-0.4059,-0.4225,0,0,0,0,0,-0.4191,-0.4165,-0.4174,-0.4123,-0.4119,-0.4134,-0.4121,-0.4138,-0.4131,-0.4129,-0.4132,-0.4124,-0.4102,-0.4086,-0.4066,-0.4004,-0.4004,-0.3974,-0.3963,-0.3954,-0.3946,-0.3913,-0.3899,-0.4045,-0.4045,-0.4045,0,0,-0.4148,-0.415,-0.4131,-0.411,-0.4107,-0.4079,-0.4131,-0.4099,-0.4079,-0.4124,-0.4081,-0.4083,-0.4077,-0.4022,-0.3999,-0.4021,-0.3907,-0.3947,-0.394,-0.3936,-0.3906,-0.3892,-0.3879,-0.4041,-0.4042,-0.4043,0,0,-0.4055,-0.4055,-0.4012,-0.4008,-0.4002,-0.4013,-0.4003,-0.4005,-0.4008,-0.3966,-0.3999,-0.3975,-0.3936,-0.393,-0.3921,-0.3829,-0.3854,-0.3822,-0.3764,-0.3732,-0.372,-0.371,-0.3675,-0.3663,-0.3814,-0.3814,-0.3814,0,-0.4003,-0.3962,-0.3987,-0.3953,-0.3942,-0.3983,-0.394,-0.3935,-0.3923,-0.3914,-0.3941,-0.3892,-0.3891,-0.3836,-0.3813,-0.3806,-0.3794,-0.382,-0.372,-0.371,-0.3701,-0.3668,-0.3655,-0.381,-0.3811,-0.3811,-0.3811,0,-0.3897,-0.3868,-0.3834,-0.3822,-0.3808,-0.377,-0.3789,-0.3772,-0.3791,-0.3799,-0.3755,-0.3756,-0.3736,-0.3725,-0.3742,-0.3672,-0.3686,-0.3716,-0.376,-0.3682,-0.3652,-0.364,-0.3804,-0.3806,-0.3807,-0.3808,0,0,-0.3761,-0.3764,-0.3751,-0.3746,-0.3744,-0.3722,-0.3686,-0.3668,-0.3652,-0.3644,-0.3613,-0.358,-0.3607,-0.3598,-0.3616,-0.3587,-0.3512,-0.362,-0.3621,-0.3598,-0.3433,-0.3409,-0.3394,-0.353,-0.3528,-0.3526,-0.3433,0,-0.3668,-0.3606,-0.3628,-0.3565,-0.3538,-0.3578,-0.3546,-0.3542,-0.3549,-0.3528,-0.3537,-0.3512,-0.3551,-0.3545,-0.3519,-0.3526,-0.3479,-0.3534,-0.35,-0.3499,-0.3498,-0.3378,-0.3352,-0.3264,-0.3421,-0.3419,-0.3418,0,-0.3551,-0.3538,-0.3472,-0.3475,-0.3464,-0.3435,-0.342,-0.34,-0.3396,-0.3403,-0.3394,-0.3418,-0.3383,-0.343,-0.3381,-0.3418,-0.3406,-0.3408,-0.3405,-0.34,-0.3451,-0.3368,-0.3236,-0.3222,-0.34,-0.3401,-0.3402,0,-0.3456,-0.3422,-0.3378,-0.3373,-0.3376,-0.3354,-0.3355,-0.3353,-0.3341,-0.3328,-0.332,-0.3304,-0.3294,-0.328,-0.3299,-0.3332,-0.3247,-0.3296,-0.3251,-0.325,-0.3229,-0.3229,-0.3091,-0.3226,-0.3226,-0.3226,-0.3226,0,-0.3349,-0.3306,-0.3335,-0.3307,-0.3261,-0.3288,-0.3241,-0.3246,-0.3245,-0.3219,-0.3253,-0.3228,-0.3256,-0.3234,-0.3249,-0.3205,-0.3201,-0.3205,-0.3209,-0.32,-0.3199,-0.3191,-0.3196,-0.3223,-0.3223,-0.3224,-0.3225,0,-0.3233,-0.3251,-0.3205,-0.3213,-0.3214,-0.3179,-0.3185,-0.316,-0.3171,-0.3137,-0.3131,-0.3148,-0.3124,-0.3142,-0.3118,-0.3128,-0.307,-0.3084,-0.3071,-0.3074,-0.3027,-0.303,-0.2876,-0.2856,-0.3006,-0.3005,-0.3003,0,-0.3162,-0.313,-0.3134,-0.312,-0.3118,-0.3094,-0.3081,-0.3108,-0.3094,-0.3087,-0.3062,-0.3041,-0.3025,-0.2984,-0.2994,-0.2976,-0.2988,-0.2935,-0.2985,-0.2977,-0.2984,-0.2984,-0.2981,-0.2924,-0.2922,-0.2921,-0.292,0,-0.3033,-0.3044,-0.3025,-0.3009,-0.2994,-0.2983,-0.2975,-0.2961,-0.2988,-0.297,-0.2946,-0.2933,-0.2909,-0.2887,-0.2873,-0.2873,-0.2899,-0.2905,-0.2893,-0.2882,-0.2874,-0.2875,-0.3041,-0.2907,-0.2908,-0.2909,-0.291,-0.291,-0.2936,-0.2909,-0.2908,-0.2886,-0.2883,-0.2875,-0.2851,-0.286,-0.284,-0.2822,-0.284,-0.281,-0.2808,-0.2791,-0.2788,-0.2765,-0.2787,-0.277,-0.2765,-0.276,-0.2752,-0.2881,-0.2763,-0.2764,-0.2764,-0.2764,-0.2765,0,-0.2806,-0.2808,-0.2788,-0.2776,-0.2758,-0.2788,-0.278,-0.2764,-0.2737,-0.2733,-0.2717,-0.2689,-0.2668,-0.2677,-0.2659,-0.2639,-0.2651,-0.2633,-0.2633,-0.2632,-0.2735,-0.2746,-0.2623,-0.2623,-0.2623,-0.2624,-0.2624,-0.2624,-0.2737,-0.2693,-0.2704,-0.2659,-0.2662,-0.2633,-0.2626,-0.2618,-0.2615,-0.2582,-0.2565,-0.2572,-0.2573,-0.2556,-0.2538,-0.2541,-0.2532,-0.2509,-0.2516,-0.2611,-0.2625,-0.2638,-0.2649,-0.2507,-0.2507,-0.2415,-0.2414,-0.2413]}]]